Effective Sunday, March 17, 2024, the National Weather Service National Data Buoy Center will discontinue its Dial-A-Buoy Interactive Voice Response system. For more information, see Service Change Notice 24-06 (PDF).

Station SGOF1 - Tyndall AFB Tower C (N4), FL Image indicating link to RSS feed of recent meteorological observations for station SGOF1


Conditions at SGOF1 as of
(1:00 pm CST)
1900 GMT on 02/27/2024:
     

Click on the graph icon in the table below to see a time series plot of the last five days of that observation.

5-day plot - Atmospheric Pressure Atmospheric Pressure (PRES):30.09 in
5-day plot - Pressure Tendency Pressure Tendency (PTDY):-0.01 in ( Falling )
5-day plot - Air Temperature Air Temperature (ATMP): 65.5 °F
Previous observations
TIME
(CST)
5-day plot - Wind Direction
WDIR
 
5-day plot - Wind Speed
WSPD
kts
5-day plot - Wind Gust
GST
kts
5-day plot - Wave Height
WVHT
ft
5-day plot - Dominant Wave Period
DPD
sec
5-day plot - Average Wave Period
APD
sec
5-day plot - Mean Wave Direction
MWD
 
5-day plot - Atmospheric Pressure
PRES
in
5-day plot - Pressure Tendency
PTDY
in
5-day plot - Air Temperature
ATMP
°F
5-day plot - Water Temperature
WTMP
°F
5-day plot - Dew Point
DEWP
°F
5-day plot - Salinity
SAL
psu
5-day plot - Visibility
VIS
nmi
5-day plot - Tide (above MLLW)
TIDE
ft
2024-02-27 12:00 pm-------30.12+0.04 65.5-----
2024-02-27 11:00 am-------30.11+0.02 65.3-----
2024-02-27 10:00 am-------30.11+0.03 65.3-----
2024-02-27 09:00 am-------30.09+0.02 65.3-----
2024-02-27 08:00 am-------30.09+0.02 65.8-----
2024-02-27 07:00 am-------30.08+0.01 65.8-----
2024-02-27 06:00 am-------30.07+0.01 65.5-----
2024-02-27 05:00 am-------30.07+0.01 65.7-----
2024-02-27 04:00 am-------30.06-0.01 65.3-----
2024-02-27 03:00 am-------30.06-0.03 65.3-----
2024-02-27 02:00 am-------30.06-0.04 65.1-----
2024-02-27 01:00 am-------30.08-0.03 65.3-----
2024-02-27 12:00 am-------30.09-0.02 65.3-----
2024-02-26 11:00 pm-------30.11-0.02 65.3-----
2024-02-26 10:00 pm-------30.11+0.00 65.3-----
2024-02-26 09:00 pm-------30.11+0.00 65.1-----
2024-02-26 08:00 pm-------30.12+0.01 65.5-----
2024-02-26 07:00 pm-------30.10-0.03 65.3-----
2024-02-26 06:00 pm-------30.11-0.02 65.5-----
2024-02-26 05:00 pm-------30.11-0.04 64.6-----
2024-02-26 04:00 pm-------30.13-0.04 64.2-----
2024-02-26 03:00 pm-------30.13-0.07 64.2-----
2024-02-26 02:00 pm-------30.15-0.07 63.9-----
2024-02-26 01:00 pm-------30.17-0.06 63.5-----